Edinburgh Airport, United Kingdom

8:00 AM BST on April 27, 2018 (GMT +0100)
Edinburgh Airport

Weather History for EGPH - October, 2010

Change the Weather History Date:

Saturday, October 30, 2010

  Actual Average Record
Temperature  
Mean Temperature 48 °F -  
Max Temperature 53 °F 48 °F 62 °F (1999)
Min Temperature 42 °F 36 °F 28 °F (2003)
Degree Days  
Heating Degree Days 18    
Moisture  
Dew Point 42 °F    
Average Humidity 81    
Maximum Humidity 93    
Minimum Humidity 62    
Precipitation  
Precipitation 0.00 in 0.08 in - ()
Sea Level Pressure  
Sea Level Pressure 29.21 in    
Wind  
Wind Speed 11 mph ()    
Max Wind Speed 18 mph    
Max Gust Speed -    
Visibility 6.1 miles    
Events Rain    
Averages and records for this station are not official NWS values.
T = Trace of Precipitation, MM = Missing Value Source: Averaged Metar Reports

Daily Weather History Graph

Daily Weather History Graph

Search for Another Location

Airport or City:

Astronomy

Oct. 30, 2010 Rise Set
Actual Time 8:15 AM BST 5:37 PM BST
Civil Twilight 7:36 AM BST 6:16 PM BST
Nautical Twilight 6:52 AM BST 7:00 PM BST
Astronomical Twilight 6:09 AM BST 7:43 PM BST
Moon No Moon Rise 2:51 PM BST (10/30)
Length of Visible Light 10h 40m
Length of Day
9h 22m
Waning Gibbous, 51% of the Moon is Illuminated
Oct 30
Waning Gibbous
Oct 30
Last Quarter
Nov 6
New
Nov 13
First Quarter
Nov 21
Full

Hourly Weather History & Observations

Time (BST) Temp. Windchill Dew Point Humidity Pressure Visibility Wind Dir Wind Speed Gust Speed Precip Events Conditions
12:20 AM 48.2 °F - 44.6 °F 87% 29.03 in 6.2 mi SW 13.8 mph - N/A Rain Light Rain
12:50 AM 48.2 °F - 44.6 °F 87% 29.03 in 5.6 mi SW 18.4 mph - N/A Rain Light Rain
1:20 AM 46.4 °F 41.5 °F 44.6 °F 93% 29.06 in 6.2 mi WSW 10.4 mph - N/A Rain Light Rain
1:50 AM 48.2 °F - 44.6 °F 87% 29.06 in 6.2 mi SW 11.5 mph - N/A   Mostly Cloudy
2:20 AM 48.2 °F - 44.6 °F 87% 29.06 in 5.0 mi WSW 13.8 mph - N/A Rain Rain
2:50 AM 46.4 °F 41.1 °F 44.6 °F 93% 29.06 in 6.2 mi WSW 11.5 mph - N/A Rain Light Rain
3:20 AM 46.4 °F 41.9 °F 44.6 °F 93% 29.06 in 6.2 mi WSW 9.2 mph - N/A   Mostly Cloudy
3:50 AM 46.4 °F 41.9 °F 42.8 °F 87% 29.06 in 6.2 mi SW 9.2 mph - N/A   Partly Cloudy
4:20 AM 46.4 °F 41.5 °F 42.8 °F 87% 29.09 in 6.2 mi SW 10.4 mph - N/A   Scattered Clouds
4:50 AM 46.4 °F 40.7 °F 42.8 °F 87% 29.09 in 6.2 mi SW 12.7 mph - N/A   Partly Cloudy
5:20 AM 46.4 °F 41.1 °F 42.8 °F 87% 29.12 in 6.2 mi SW 11.5 mph - N/A   Partly Cloudy
5:50 AM 44.6 °F 37.8 °F 41.0 °F 87% 29.12 in 6.2 mi SW 15.0 mph - N/A   Partly Cloudy
6:20 AM 44.6 °F 38.1 °F 41.0 °F 87% 29.12 in 6.2 mi SW 13.8 mph - N/A   Partly Cloudy
6:50 AM 44.6 °F 36.9 °F 41.0 °F 87% 29.12 in - SW 18.4 mph - N/A   Clear
7:20 AM 44.6 °F 37.4 °F 41.0 °F 87% 29.15 in - SW 16.1 mph - N/A   Clear
7:50 AM 44.6 °F 38.1 °F 41.0 °F 87% 29.15 in - WSW 13.8 mph - N/A   Clear
8:20 AM 42.8 °F 37.5 °F 39.2 °F 87% 29.18 in - SW 9.2 mph - N/A   Clear
8:50 AM 42.8 °F 38.0 °F 39.2 °F 87% 29.18 in - WSW 8.1 mph - N/A   Clear
9:20 AM 44.6 °F 37.8 °F 39.2 °F 81% 29.21 in - SW 15.0 mph - N/A   Clear
9:50 AM 46.4 °F 40.7 °F 41.0 °F 81% 29.21 in - SW 12.7 mph - N/A   Clear
10:20 AM 46.4 °F 41.1 °F 41.0 °F 81% 29.21 in - SW 11.5 mph - N/A   Clear
10:50 AM 48.2 °F - 42.8 °F 82% 29.21 in - SW 11.5 mph - N/A   Clear
11:20 AM 50.0 °F - 41.0 °F 71% 29.21 in - SW 11.5 mph - N/A   Clear
11:50 AM 50.0 °F - 42.8 °F 76% 29.24 in - SW 15.0 mph - N/A   Clear
12:20 PM 51.8 °F - 42.8 °F 71% 29.24 in - SW 15.0 mph - N/A   Clear
12:50 PM 51.8 °F - 41.0 °F 67% 29.24 in - SW 16.1 mph - N/A   Clear
1:20 PM 51.8 °F - 42.8 °F 71% 29.24 in 6.2 mi SW 16.1 mph - N/A   Partly Cloudy
1:50 PM 51.8 °F - 42.8 °F 71% 29.24 in 6.2 mi SW 16.1 mph - N/A   Partly Cloudy
2:20 PM 53.6 °F - 41.0 °F 62% 29.24 in 6.2 mi WSW 15.0 mph - N/A   Partly Cloudy
2:50 PM 53.6 °F - 41.0 °F 62% 29.24 in 6.2 mi SW 16.1 mph - N/A   Partly Cloudy
3:20 PM 53.6 °F - 41.0 °F 62% 29.24 in 6.2 mi SW 13.8 mph - N/A   Scattered Clouds
3:50 PM 53.6 °F - 41.0 °F 62% 29.24 in 6.2 mi SW 10.4 mph - N/A   Scattered Clouds
4:20 PM 50.0 °F - 42.8 °F 76% 29.24 in 6.2 mi SW 6.9 mph - N/A   Partly Cloudy
4:50 PM 50.0 °F - 42.8 °F 76% 29.27 in 6.2 mi SW 6.9 mph - N/A   Partly Cloudy
5:20 PM 50.0 °F - 42.8 °F 76% 29.27 in 6.2 mi SSW 9.2 mph - N/A   Partly Cloudy
5:50 PM 50.0 °F - 42.8 °F 76% 29.27 in 6.2 mi SSW 10.4 mph - N/A   Partly Cloudy
6:20 PM 48.2 °F - 42.8 °F 82% 29.27 in - SW 9.2 mph - N/A   Clear
6:50 PM 48.2 °F - 42.8 °F 82% 29.30 in - SW 11.5 mph - N/A   Clear
7:20 PM 46.4 °F 42.4 °F 41.0 °F 81% 29.30 in - SW 8.1 mph - N/A   Clear
7:50 PM 44.6 °F 42.2 °F 41.0 °F 87% 29.30 in - West 4.6 mph - N/A   Clear
8:20 PM 44.6 °F 42.2 °F 41.0 °F 87% 29.33 in - West 4.6 mph - N/A   Clear
8:50 PM 44.6 °F 42.2 °F 41.0 °F 87% 29.33 in - West 4.6 mph - N/A   Clear
9:20 PM 44.6 °F 40.7 °F 41.0 °F 87% 29.33 in - WSW 6.9 mph - N/A   Clear
9:50 PM 46.4 °F 42.9 °F 41.0 °F 81% 29.33 in 6.2 mi West 6.9 mph - N/A   Scattered Clouds
10:20 PM 44.6 °F 40.2 °F 41.0 °F 87% 29.36 in 6.2 mi WSW 8.1 mph - N/A   Partly Cloudy
10:50 PM 44.6 °F 41.4 °F 41.0 °F 87% 29.36 in 6.2 mi West 5.8 mph - N/A   Partly Cloudy
11:20 PM 44.6 °F 42.2 °F 41.0 °F 87% 29.36 in 6.2 mi West 4.6 mph - N/A   Partly Cloudy
11:50 PM 42.8 °F 39.3 °F 39.2 °F 87% 29.36 in - WSW 5.8 mph - N/A   Clear